Regional Weather Roundup
Issued by NWS

Home | Current Version | Previous Version | Text Only | Print | Product List | Glossary Off
Versions: 1 2 3 4 5 6 7 8 9 10 11 12 13 14 15 16 17 18 19 20 21 22 23 24 25 26 27 28 29 30 31 32 33 34 35 36 37 38 39 40 41 42 43 44 45 46 47 48 49 50

000
ASUS43 KFSD 240602
RWRSD

WEATHER ROUNDUP FOR SOUTH DAKOTA
NATIONAL WEATHER SERVICE SIOUX FALLS SD
1200 AM CST MON NOV 24 2014

NOTE: "FAIR" INDICATES FEW OR NO CLOUDS BELOW 12,000 FEET WITH NO
SIGNIFICANT WEATHER AND/OR OBSTRUCTIONS TO VISIBILITY.


SDZ001>005-009-010-012>017-240700-
NORTHWEST AND NORTH CENTRAL SOUTH DAKOTA

CITY           SKY/WX    TMP DP  RH WIND       PRES   REMARKS
BUFFALO          N/A     18  14  84 NW15      29.67F WCI   4
FAITH            N/A     22  15  75 NW22G28   29.71S WCI   6
MOBRIDGE       CLOUDY    24  16  71 NW18      29.64F WCI  10
$$

SDZ012>016-024>037-041>051-057-063-072>074-240700-
SOUTHWEST AND SOUTH CENTRAL SOUTH DAKOTA

CITY           SKY/WX    TMP DP  RH WIND       PRES   REMARKS
RAPID CTY ARPT MOCLDY    33  20  58 NW23G32   29.72S WCI  21
PIERRE         CLOUDY    26  17  68 NW24G31   29.67S WCI  11
CUSTER         CLEAR     26  12  55 W15G28    29.67F WCI  14
ELLSWORTH AFB  CLOUDY    33  20  59 N23G30    29.72R WCI  21
PHILIP         PTCLDY   N/A N/A N/A N14       29.73S
PINE RIDGE     CLOUDY    34  22  61 NW12      29.74R WCI  25
WINNER         CLOUDY    29  19  66 NW21G31   29.66F WCI  16
$$

SDZ004>011-016>023-039-040-240700-
NORTHEAST SOUTH DAKOTA

CITY           SKY/WX    TMP DP  RH WIND       PRES   REMARKS
ABERDEEN       CLOUDY    20  10  65 N22       29.64S WCI   3
WATERTOWN      CLOUDY    17  11  77 NW23G32   29.53S WCI  -1
SISSETON         N/A     19  14  81 N25G32    29.55S WCI   1
$$

SDZ017-020-022-023-036>040-048>070-240700-
SOUTHEAST SOUTH DAKOTA

CITY           SKY/WX    TMP DP  RH WIND       PRES   REMARKS
SIOUX FALLS    CLOUDY    24  16  71 NW29G36   29.53S WCI   7
HURON          CLOUDY    22  14  71 N23G29    29.61F WCI   6
CHAMBERLAIN    CLOUDY    28  19  69 NW23G31   29.64S WCI  13
MITCHELL       CLOUDY    25  16  68 NW23      29.63S WCI  10
YANKTON        CLOUDY    28  18  64 NW18G25   29.58F WCI  16
$$

ABBREVIATIONS USED IN REMARKS
   TC - TEMPERATURE IN CELSIUS
  WCI - WIND CHILL INDEX
   HX - HEAT INDEX
  VSB - VISIBILITY




USA.gov is the U.S. government's official web portal to all federal, state and local government web resources and services.